Hourly Weather Dobrich

Today, 28 September, Monday

Time Temperature Precipitation Wind Pressure Humidity
00:00 +16°C° 0 mm 3 mps 739 mmHg 73%
01:00 +16°C° 0 mm 3 mps 739 mmHg 78%
02:00 +17°C° 0 mm 3 mps 740 mmHg 83%
03:00 +17°C° 0 mm 4 mps 740 mmHg 84%
04:00 +17°C° 0 mm 4 mps 740 mmHg 86%
05:00 +18°C° 0 mm 4 mps 739 mmHg 88%
06:00 +19°C° 0 mm 5 mps 740 mmHg 82%
07:00 +21°C° 0 mm 6 mps 740 mmHg 77%
08:00 +22°C° 0 mm 6 mps 740 mmHg 71%
09:00 +23°C° 0 mm 7 mps 740 mmHg 63%
10:00 +24°C° 0 mm 7 mps 740 mmHg 54%
11:00 +26°C° 0 mm 8 mps 740 mmHg 46%
12:00 +27°C° 0 mm 8 mps 740 mmHg 47%
13:00 +27°C° 0 mm 8 mps 739 mmHg 48%
14:00 +27°C° 0 mm 8 mps 739 mmHg 49%
15:00 +26°C° 0 mm 7 mps 739 mmHg 54%
16:00 +24°C° 0 mm 7 mps 738 mmHg 59%
17:00 +23°C° 0 mm 6 mps 738 mmHg 64%
18:00 +22°C° 0 mm 6 mps 738 mmHg 73%
19:00 +21°C° 0 mm 6 mps 738 mmHg 81%
20:00 +20°C° 0 mm 5 mps 737 mmHg 90%
21:00 +20°C° 0 mm 5 mps 737 mmHg 89%
22:00 +20°C° 0 mm 4 mps 737 mmHg 89%
23:00 +20°C° 0 mm 4 mps 736 mmHg 88%

Tomorrow, 29 September, Tuesday

Time Temperature Precipitation Wind Pressure Humidity
00:00 +20°C° 0 mm 4 mps 736 mmHg 86%
01:00 +20°C° 0 mm 4 mps 736 mmHg 84%
02:00 +20°C° 0 mm 4 mps 736 mmHg 81%
03:00 +19°C° 0 mm 4 mps 735 mmHg 84%
04:00 +18°C° 0 mm 3 mps 735 mmHg 87%
05:00 +18°C° 0 mm 3 mps 735 mmHg 90%
06:00 +19°C° 0 mm 3 mps 735 mmHg 79%
07:00 +20°C° 0 mm 4 mps 735 mmHg 68%
08:00 +21°C° 0 mm 4 mps 735 mmHg 58%
09:00 +22°C° 0 mm 5 mps 735 mmHg 52%
10:00 +23°C° 0 mm 6 mps 735 mmHg 45%
11:00 +24°C° 0 mm 7 mps 735 mmHg 39%
12:00 +24°C° 0 mm 6 mps 735 mmHg 38%
13:00 +24°C° 0 mm 6 mps 735 mmHg 37%
14:00 +25°C° 0 mm 5 mps 735 mmHg 35%
15:00 +23°C° 0 mm 5 mps 734 mmHg 38%
16:00 +22°C° 0 mm 5 mps 734 mmHg 41%
17:00 +21°C° 0 mm 4 mps 734 mmHg 43%
18:00 +20°C° 0 mm 4 mps 734 mmHg 47%
19:00 +19°C° 0 mm 3 mps 734 mmHg 51%
20:00 +18°C° 0 mm 2 mps 734 mmHg 54%
21:00 +18°C° 0 mm 3 mps 734 mmHg 55%
22:00 +17°C° 0 mm 3 mps 734 mmHg 55%
23:00 +17°C° 0 mm 4 mps 734 mmHg 55%

Day after tomorrow, 30 September, Wednesday

Time Temperature Precipitation Wind Pressure Humidity
00:00 +15°C° 0 mm 4 mps 733 mmHg 57%
01:00 +15°C° 0 mm 4 mps 733 mmHg 59%
02:00 +14°C° 0 mm 5 mps 733 mmHg 61%
03:00 +14°C° 0 mm 5 mps 733 mmHg 61%
04:00 +14°C° 0 mm 6 mps 733 mmHg 60%
05:00 +14°C° 0 mm 7 mps 733 mmHg 59%
06:00 +14°C° 0 mm 7 mps 734 mmHg 57%
07:00 +15°C° 0 mm 7 mps 734 mmHg 54%
08:00 +15°C° 0 mm 7 mps 734 mmHg 52%
09:00 +16°C° 0 mm 7 mps 734 mmHg 51%
10:00 +16°C° 0 mm 7 mps 734 mmHg 50%
11:00 +17°C° 0 mm 7 mps 734 mmHg 49%
12:00 +19°C° 0 mm 6 mps 733 mmHg 45%
13:00 +20°C° 0 mm 6 mps 733 mmHg 41%
14:00 +21°C° 0 mm 6 mps 733 mmHg 37%
15:00 +21°C° 0 mm 6 mps 733 mmHg 38%
16:00 +20°C° 0 mm 6 mps 733 mmHg 39%
17:00 +20°C° 0 mm 6 mps 732 mmHg 41%
18:00 +19°C° 0 mm 6 mps 733 mmHg 45%
19:00 +16°C° 0 mm 5 mps 733 mmHg 49%
20:00 +15°C° 0 mm 5 mps 733 mmHg 54%
21:00 +14°C° 0 mm 5 mps 733 mmHg 58%
22:00 +13°C° 0 mm 5 mps 733 mmHg 62%
23:00 +12°C° 0 mm 5 mps 733 mmHg 66%

1 October, Thursday

Time Temperature Precipitation Wind Pressure Humidity
00:00 +12°C° 0 mm 5 mps 732 mmHg 67%
01:00 +12°C° 0 mm 5 mps 732 mmHg 69%
02:00 +12°C° 0 mm 5 mps 732 mmHg 70%
03:00 +12°C° 0 mm 5 mps 732 mmHg 70%
04:00 +12°C° 0 mm 4 mps 732 mmHg 71%
05:00 +12°C° 0 mm 4 mps 732 mmHg 71%
06:00 +13°C° 0 mm 4 mps 732 mmHg 69%
07:00 +13°C° 0 mm 5 mps 732 mmHg 67%
08:00 +14°C° 0 mm 5 mps 732 mmHg 64%
09:00 +14°C° 0.1 mm 5 mps 732 mmHg 63%
10:00 +15°C° 0.1 mm 5 mps 732 mmHg 62%
11:00 +15°C° 0.1 mm 5 mps 732 mmHg 61%
12:00 +16°C° 0.2 mm 5 mps 732 mmHg 57%
13:00 +17°C° 0.2 mm 5 mps 732 mmHg 53%
14:00 +19°C° 0.2 mm 5 mps 732 mmHg 49%
15:00 +19°C° 0.1 mm 5 mps 732 mmHg 50%
16:00 +19°C° 0.1 mm 5 mps 732 mmHg 50%
17:00 +17°C° 0.1 mm 5 mps 732 mmHg 51%
18:00 +17°C° 0 mm 4 mps 732 mmHg 55%
19:00 +15°C° 0 mm 4 mps 732 mmHg 60%
20:00 +14°C° 0 mm 3 mps 733 mmHg 65%
21:00 +14°C° 0 mm 3 mps 733 mmHg 67%
22:00 +14°C° 0 mm 3 mps 733 mmHg 70%
23:00 +14°C° 0 mm 3 mps 733 mmHg 73%

2 October, Friday

Time Temperature Precipitation Wind Pressure Humidity
00:00 +13°C° 0 mm 3 mps 733 mmHg 74%
01:00 +13°C° 0 mm 3 mps 733 mmHg 76%
02:00 +14°C° 0 mm 2 mps 733 mmHg 78%
03:00 +13°C° 0 mm 2 mps 733 mmHg 79%
04:00 +13°C° 0 mm 2 mps 733 mmHg 80%
05:00 +12°C° 0 mm 2 mps 733 mmHg 81%
06:00 +14°C° 0 mm 2 mps 733 mmHg 74%
07:00 +15°C° 0 mm 2 mps 734 mmHg 68%
08:00 +16°C° 0 mm 2 mps 734 mmHg 61%
09:00 +18°C° 0 mm 3 mps 734 mmHg 53%
10:00 +21°C° 0 mm 4 mps 734 mmHg 46%
11:00 +23°C° 0 mm 5 mps 735 mmHg 38%
12:00 +23°C° 0 mm 4 mps 735 mmHg 37%
13:00 +25°C° 0 mm 4 mps 734 mmHg 35%
14:00 +25°C° 0 mm 4 mps 734 mmHg 33%
15:00 +25°C° 0 mm 4 mps 734 mmHg 36%
16:00 +24°C° 0 mm 3 mps 734 mmHg 40%
17:00 +22°C° 0 mm 3 mps 734 mmHg 44%
18:00 +21°C° 0 mm 2 mps 735 mmHg 51%
19:00 +19°C° 0 mm 2 mps 735 mmHg 58%
20:00 +18°C° 0 mm 2 mps 735 mmHg 66%
21:00 +17°C° 0 mm 2 mps 735 mmHg 69%
22:00 +17°C° 0 mm 2 mps 735 mmHg 73%
23:00 +17°C° 0 mm 2 mps 735 mmHg 76%

3 October, Saturday

Time Temperature Precipitation Wind Pressure Humidity
00:00 +17°C° 0 mm 2 mps 735 mmHg 78%
01:00 +17°C° 0 mm 2 mps 735 mmHg 80%
02:00 +17°C° 0 mm 2 mps 735 mmHg 82%
03:00 +17°C° 0 mm 2 mps 735 mmHg 82%
04:00 +16°C° 0 mm 2 mps 735 mmHg 81%
05:00 +16°C° 0 mm 2 mps 735 mmHg 81%
06:00 +18°C° 0 mm 2 mps 735 mmHg 72%
07:00 +19°C° 0 mm 3 mps 735 mmHg 64%
08:00 +20°C° 0 mm 3 mps 736 mmHg 56%
09:00 +22°C° 0 mm 4 mps 736 mmHg 49%
10:00 +25°C° 0 mm 5 mps 736 mmHg 42%
11:00 +27°C° 0 mm 5 mps 736 mmHg 35%
12:00 +27°C° 0 mm 6 mps 736 mmHg 34%
13:00 +28°C° 0 mm 6 mps 735 mmHg 33%
14:00 +28°C° 0 mm 6 mps 735 mmHg 33%
15:00 +27°C° 0 mm 6 mps 735 mmHg 38%
16:00 +24°C° 0 mm 6 mps 735 mmHg 43%
17:00 +23°C° 0 mm 6 mps 735 mmHg 49%
18:00 +22°C° 0 mm 5 mps 735 mmHg 57%
19:00 +20°C° 0 mm 5 mps 735 mmHg 66%
20:00 +19°C° 0 mm 5 mps 735 mmHg 75%
21:00 +19°C° 0 mm 5 mps 736 mmHg 77%
22:00 +19°C° 0 mm 5 mps 736 mmHg 79%
23:00 +19°C° 0 mm 4 mps 736 mmHg 82%
Show more